This demonstration page uses our WeatherBlox Daily Observations layout. Learn more.

Left ArrowRight Arrow

44.89941, -97.11507

Hourly Observations for March 8, 2017

Temp ( °F °C ) Dew Point ( °F °C ) Humidity (%) Winds ( mph kmh ) Pressure ( in mb ) Visibility ( mi km ) Precip ( " mm )
12:53 am 00:53 Clear 28 -2.2 9 -12.8 44 44 WNW 28 44 29.88 1012 10 16 0.00 0.00
1:53 am 01:53 Clear 27 -2.8 11 -11.7 51 51 W 21 33 29.90 1013 10 16 0.00 0.00
2:53 am 02:53 Clear 26 -3.3 11 -11.7 53 53 W 22 35 29.90 1013 10 16 0.00 0.00
3:53 am 03:53 Clear 25 -3.9 10 -12.2 53 53 W 22 35 29.92 1013 10 16 0.00 0.00
4:53 am 04:53 Clear 24 -4.4 10 -12.2 55 55 WNW 23 37 29.96 1015 10 16 0.00 0.00
5:53 am 05:53 Clear 23 -5 10 -12.2 57 57 WNW 22 35 29.99 1016 10 16 0.00 0.00
6:53 am 06:53 Sunny 22 -5.6 9 -12.8 57 57 WNW 26 43 30.02 1017 10 16 0.00 0.00
7:53 am 07:53 Sunny 21 -6.1 8 -13.3 57 57 WNW 20 31 30.05 1018 10 16 0.00 0.00
8:53 am 08:53 Sunny 22 -5.6 6 -14.4 50 50 NW 26 43 30.08 1019 10 16 0.00 0.00
9:53 am 09:53 Sunny 23 -5 6 -14.4 48 48 WNW 22 35 30.12 1020 10 16 0.00 0.00
10:53 am 10:53 Sunny 27 -2.8 6 -14.4 41 41 WNW 23 37 30.13 1020 10 16 0.00 0.00
11:53 am 11:53 Cloudy 28 -2.2 8 -13.3 43 43 NW 14 22 30.14 1021 10 16 0.00 0.00
12:53 pm 12:53 Mostly Cloudy 27 -2.8 7 -13.9 43 43 WNW 15 24 30.17 1022 10 16 0.00 0.00
1:53 pm 13:53 Cloudy 30 -1.1 9 -12.8 41 41 NW 17 28 30.17 1022 10 16 0.00 0.00
2:53 pm 14:53 Cloudy 31 -0.6 7 -13.9 36 36 NW 17 28 30.18 1022 10 16 0.00 0.00
3:53 pm 15:53 Mostly Sunny 32 0 7 -13.9 35 35 NW 13 20 30.17 1022 10 16 0.00 0.00
4:53 pm 16:53 Mostly Cloudy 31 -0.6 9 -12.8 40 40 NNW 10 17 30.18 1022 10 16 0.00 0.00
5:53 pm 17:53 Mostly Sunny 29 -1.7 9 -12.8 43 43 NNW 8 13 30.18 1022 10 16 0.00 0.00
6:53 pm 18:53 Cloudy 28 -2.2 10 -12.2 47 47 NNW 5 7 30.21 1023 10 16 0.00 0.00
7:53 pm 19:53 Cloudy 27 -2.8 12 -11.1 53 53 NE 5 7 30.22 1023 10 16 0.00 0.00
8:53 pm 20:53 Cloudy 27 -2.8 12 -11.1 53 53 NNE 7 11 30.23 1024 10 16 0.00 0.00
9:53 pm 21:53 Mostly Cloudy 25 -3.9 15 -9.4 66 66 N 6 9 30.23 1024 10 16 0.00 0.00
10:53 pm 22:53 Cloudy 25 -3.9 16 -8.9 69 69 NNE 3 6 30.22 1023 10 16 0.00 0.00
11:53 pm 23:53 Cloudy 24 -4.4 16 -8.9 71 71 N 5 7 30.22 1023 10 16 0.00 0.00

Powered by AerisWeather